Content
SEND FEEDBACK

Daily
Averages
Monthly
Summary
United States of America

WILMINGTON, NORTH CAROLINA


Home > North America > United States > North Carolina
Elevation: 21 meters     Latitude: 34 16N     Longitude: 077 54W

WEATHER
 
SELECT A DAY
Number of Records: 206,631;   Date Range: 1/1/95 - 4/19/14
 
SHARE

PRINT THIS DATA

[ ← Previous Day ]
WEATHER ALMANAC - 4 MAY, 2013
[ Next Day → ]
[ °F ]   °C
Weather ElementAverageHighLow
Temperature14.7 °C20.6 °C (12:53 pm)11 °C (1:22 am)
Dewpoint10.7 °C13 °C (5:27 pm)8 °C (1:10 am)
Humidity77.8 %89 % (5:53 am)57 % (12:53 pm)
Barometer1017.9 hPa1020 hPa (1:10 am)1016.6 hPa (3:53 pm)
Wind Speed22.4 km/h31.5 km/h (5:53 am)
Wind Gust44.4 km/h (5:53 am)
Weather ElementAverage
Visibility15.9 km
Wind DirectionNE (41.5 °)

Weather ElementTotal
Precipitation---
Heating Degree Days2.6 (Base 18.3)
Growing Degree Days5.8 (Base 10)
Averaged from 34 records on 4 May, 2013
WEATHER CONDITIONS BREAKOUT
WIND DIRECTION BREAKOUT
WEATHER BY HOUR - 4 MAY, 2013
[ °F ]   °C
Local TimeTemperatureDewpointHumidityBarometerVisibilityWind DirectionWind SpeedGust SpeedPrecipitationEventsConditions
1:10 AM12 °C8 °C77 %1020 hPa16.1 kmNNE (30°)13 km/hOvercast
1:22 AM11 °C8 °C82 %1020 hPa16.1 kmNNE (30°)18.5 km/hOvercast
1:53 AM11.1 °C8.3 °C83 %1019.6 hPa16.1 kmNNE (20°)13 km/hMostly Cloudy
2:53 AM11.1 °C8.3 °C83 %1019 hPa16.1 kmNNE (20°)22.2 km/hMostly Cloudy
3:15 AM11 °C8 °C82 %1018.3 hPa16.1 kmNNE (20°)24.1 km/hMostly Cloudy
3:45 AM11 °C8 °C82 %1018.3 hPa16.1 kmNNE (30°)18.5 km/hMostly Cloudy
3:53 AM11.1 °C8.9 °C86 %1018.3 hPa16.1 kmNE (40°)22.2 km/hScattered Clouds
4:00 AM11 °C9 °C88 %1018.3 hPa16.1 kmNNE (30°)22.2 km/hMostly Cloudy
4:38 AM12 °C9 °C82 %1018.3 hPa16.1 kmNE (40°)20.4 km/hMostly Cloudy
4:53 AM11.7 °C9.4 °C86 %1017.9 hPa16.1 kmNE (40°)29.6 km/h37 km/hOvercast
5:53 AM11.7 °C10 °C89 %1018.3 hPa16.1 kmNNE (30°)31.5 km/h44.4 km/hOvercast
6:53 AM12.2 °C10 °C86 %1018.3 hPa16.1 kmNE (40°)31.5 km/h38.9 km/h0 mmOvercast
7:53 AM12.8 °C10.6 °C86 %1019 hPa16.1 kmNE (40°)27.8 km/h37 km/hOvercast
8:49 AM14 °C11 °C82 %1019 hPa16.1 kmNNE (30°)18.5 km/hOvercast
8:53 AM13.9 °C10.6 °C81 %1019 hPa16.1 kmNNE (30°)18.5 km/hOvercast
9:53 AM16.1 °C10.6 °C70 %1019 hPa16.1 kmNNE (30°)22.2 km/hOvercast
10:09 AM16 °C11 °C72 %1018.6 hPa16.1 kmNNE (30°)27.8 km/hOvercast
10:53 AM17.2 °C10.6 °C65 %1018.6 hPa16.1 kmNE (50°)22.2 km/hMostly Cloudy
11:53 AM18.9 °C11.7 °C63 %1018.6 hPa16.1 kmNNE (30°)25.9 km/hOvercast
12:53 PM20.6 °C11.7 °C57 %1017.6 hPa16.1 kmNE (40°)25.9 km/hScattered Clouds
1:53 PM20.6 °C12.2 °C58 %1017.3 hPa16.1 kmNE (50°)25.9 km/h40.7 km/hPartly Cloudy
2:53 PM19.4 °C12.8 °C66 %1016.9 hPa16.1 kmENE (70°)24.1 km/h42.6 km/hClear
3:53 PM18.3 °C12.8 °C70 %1016.6 hPa16.1 kmENE (70°)25.9 km/h40.7 km/hOvercast
4:53 PM17.8 °C12.8 °C73 %1016.9 hPa16.1 kmENE (70°)24.1 km/h31.5 km/hOvercast
5:27 PM18 °C13 °C73 %1016.6 hPa16.1 kmENE (60°)18.5 km/hOvercast
5:53 PM17.8 °C12.8 °C73 %1016.6 hPa16.1 kmNE (50°)22.2 km/hOvercast
6:53 PM17.2 °C12.2 °C72 %1016.6 hPa16.1 kmENE (60°)20.4 km/h33.3 km/hOvercast
7:53 PM16.7 °C12.2 °C75 %1016.9 hPa16.1 kmENE (60°)25.9 km/h38.9 km/hOvercast
8:53 PM16.1 °C12.2 °C78 %1016.9 hPa16.1 kmNE (50°)25.9 km/h37 km/hOvercast
9:45 PM15 °C12 °C82 %1017.6 hPa16.1 kmNE (50°)20.4 km/hOvercast
9:53 PM15 °C12.2 °C83 %1017.6 hPa12.9 kmNE (50°)16.7 km/hOvercast
10:53 PM13.9 °C12.2 °C89 %1017.3 hPa16.1 kmNE (40°)18.5 km/h0 mmOvercast
11:28 PM14 °C12 °C88 %1016.9 hPa16.1 kmNE (40°)16.7 km/hOvercast
11:53 PM13.9 °C11.1 °C83 %1016.9 hPa16.1 kmNE (40°)20.4 km/hOvercast
Hourly data recorded from KILM, located 0.98 kilometers away from Wilmington, North Carolina







STORIES FROM OUR PARTNERS